Skip Page Navigation
NASA JPL Caltech
NASA Logo - Jet Propulsion Laboratory + View the NASA Portal
+ Center for Near-Earth Object Studies
JPL Home Earth Solar System Stars & Galaxies Technology
JPL Solar System Dynamics
BODIES ORBITS EPHEMERIDES TOOLS PHYSICAL DATA DISCOVERY FAQ SITE MAP
JPL Small-Body Database Browser
Search: [ help ]  
442425 (2011 UE130)
Classification: Main-belt Asteroid          SPK-ID: 2442425
Ephemeris | Orbit Diagram | Orbital Elements | Mission Design | Physical Parameters | Discovery Circumstances ]

[ show orbit diagram ]
Orbital Elements at Epoch 2459000.5 (2020-May-31.0) TDB
Reference: JPL 11 (heliocentric ecliptic J2000)
 Element Value Uncertainty (1-sigma)   Units 
e .1537946486172163 8.4009e-08  
a 2.743454192858424 4.5912e-08 au
q 2.321525619270334 2.5929e-07 au
i 5.651941255310643 8.1016e-06 deg
node 44.44127923271505 5.6738e-05 deg
peri 256.6480296316457 6.8536e-05 deg
M 32.40902950149337 3.081e-05 deg
tp 2458851.080072246342
(2020-Jan-02.58007225)
0.00014197 TDB
period 1659.758864079481
4.54
4.1664e-05
1.141e-07
d
yr
n .2168989771894724 5.4447e-09 deg/d
Q 3.165382766446514 5.2972e-08 au
  Orbit Determination Parameters
   # obs. used (total)      119  
   data-arc span      5232 days (14.32 yr)  
   first obs. used      2005-04-01  
   last obs. used      2019-07-29  
   planetary ephem.      DE431  
   SB-pert. ephem.      SB431-N16  
   condition code      0  
   norm. resid. RMS      .57301  
   source      ORB  
   producer      Otto Matic  
   solution date      2019-Sep-24 07:43:09  

Additional Information
 Earth MOID = 1.31418 au 
 Jupiter MOID = 2.07328 au 
 T_jup = 3.325 
[ show covariance matrix ]

Ephemeris | Orbit Diagram | Orbital Elements | Mission Design | Physical Parameters | Discovery Circumstances ]

Physical Parameter Table
Parameter Symbol Value Units Sigma Reference Notes
absolute magnitude H 17.1   n/a MPO477089  

442425 (2011 UE130)          Discovered 2005-Apr-01 by Spacewatch at Kitt Peak
Reference: Last Updated: 2015-09-02
Ephemeris | Orbit Diagram | Orbital Elements | Mission Design | Physical Parameters | Discovery Circumstances ]
ABOUT SSD CREDITS/AWARDS PRIVACY/COPYRIGHT GLOSSARY LINKS
FirstGov 2020-Sep-20 18:59 UT
(server date/time)  
NASA Home Page
Site Manager:   Ryan S. Park
Webmaster  Alan B. Chamberlin